STARLINK-36721, 67916

Orbit data source: Space-Track

STARLINK-36721, 67916 is a payload satellite owned by SpaceX/Seattle (US) in LEO that was launched on Sun, 22 Feb 2026 UTC via an FALCON 9 launch vehicle from the Air Force Eastern Test Range (AFETR). Payload-class satellites include a variety of spacecraft equipped with specific instruments for various scientific and technological missions. These include communications satellites like Starlink; space stations such as the ISS; scientific satellites like the Hubble; Earth observation satellites from companies like Planet Labs, Umbra, and HawkEye 360; GPS; miniature CubeSats for education and research; and military/defense satellites.

Loading next visibility...
Identifier
67916, 2026-036N
Orbit
LEO
Country
Flag of USUS
Related business
Manufacturer
SpaceX/Seattle
Mission
Operational spacecraft
Bus & Motor
STARLINK V2MO, Unknown motor
Mass
575 kg wet, ~530 kg dry
Launch date (UTC)
2026-02-22 (2 months ago)
Launch vehicle
FALCON 9
Launch site
Air Force Eastern Test Range (AFETR)
Object type
Payload
Rocket body
Debris
Shape & HBR
Unknown shape, 17.7 m
Radar Cross Section
RCS unknown

Expand to show TLE details & history
Last TLE update: 10 hours ago

TLE from 10 hours ago
0 STARLINK-36721
1 67916U 26036N   26103.92830670  .00007095  00000-0  26040-3 0  9999
2 67916  43.0004  46.0447 0000443 264.2920  95.7881 15.28418459  9119
Epoch: 2026-04-13T22:16Z
TLE epoch observation values (Epoch: 2026-04-13T22:16:45.698Z)
Latitude
-0.00007°
Longitude
-130.25765°
Altitude
480.346 km
Speed
7.627 km/s
True Right ascension
03h 04m 10s
True Declination
0° 00' 00"
Sunlit
Object was in daylight at epoch
Visualization orbit readout
Latitude
Unknown
Longitude
Unknown
Altitude
Unknown
Speed
Unknown
Apparent Right ascension
Unknown
Apparent Declination
Unknown
Sunlit
N/A
Visualization observer readout
Local Sidereal Time
15:06:35
Azimuth
Unknown
Elevation
Unknown
Doppler factor
Unknown
Orbital elements
Apogee altitude
482.789 km
Perigee altitude
482.181 km
Semi-major axis
6,860.622 km
Eccentricity
0.00004
Inclination
43.0004°
RAAN
46.0447°
Arg. of periapsis
264.292°
True anomaly
95.79315°
Mean anomaly
95.7881°
Eccentric anomaly
95.79063°
Mean motion
3.81942 °/min
Orbital period
94.26 mins
BSTAR
0.0002604
Loading maneuver chart data...
Computing Atmospheric mass density...
Loading historical data...
Loading historical data...
Loading historical data...
Loading historical data...
Loading historical data...
Loading historical data...
Loading historical data...

Documentation

Showing up to 5 results
|